TimeEST,TemperatureF,Dew PointF,Humidity,Sea Level PressureIn,VisibilityMPH,Wind Direction,Wind SpeedMPH,Gust SpeedMPH,PrecipitationIn,Events,Conditions,WindDirDegrees,DateUTC
12:51 AM,21.2,19.4,93,30.30,9.0,Calm,Calm,-,N/A,,Clear,0,2011-12-02 05:51:00
1:51 AM,19.9,17.1,89,30.38,7.0,Calm,Calm,-,N/A,,Clear,0,2011-12-02 06:51:00
2:51 AM,19.0,16.0,88,30.39,9.0,Calm,Calm,-,N/A,,Clear,0,2011-12-02 07:51:00
3:51 AM,19.9,17.1,89,30.38,8.0,Calm,Calm,-,N/A,,Clear,0,2011-12-02 08:51:00
4:51 AM,18.0,15.1,88,30.39,9.0,Calm,Calm,-,N/A,,Clear,0,2011-12-02 09:51:00
5:51 AM,18.0,15.1,88,30.41,9.0,Calm,Calm,-,N/A,,Clear,0,2011-12-02 10:51:00
6:51 AM,19.4,15.8,86,30.35,10.0,Calm,Calm,-,N/A,,Clear,0,2011-12-02 11:51:00
7:51 AM,19.9,16.0,85,30.45,8.0,Calm,Calm,-,N/A,,Clear,0,2011-12-02 12:51:00
8:51 AM,27.0,21.9,81,30.46,10.0,Calm,Calm,-,N/A,,Clear,0,2011-12-02 13:51:00
9:51 AM,35.1,28.0,76,30.47,10.0,Calm,Calm,-,N/A,,Clear,0,2011-12-02 14:51:00
10:51 AM,45.0,28.0,52,30.45,10.0,Variable,4.6,-,N/A,,Clear,0,2011-12-02 15:51:00
11:51 AM,48.9,24.1,38,30.42,10.0,SSE,5.8,-,N/A,,Clear,160,2011-12-02 16:51:00
12:51 PM,50.0,15.1,25,30.41,10.0,SW,8.1,-,N/A,,Clear,230,2011-12-02 17:51:00
1:51 PM,50.0,16.0,26,30.42,10.0,West,10.4,17.3,N/A,,Clear,280,2011-12-02 18:51:00
2:51 PM,48.9,19.9,32,30.44,10.0,WNW,6.9,-,N/A,,Clear,300,2011-12-02 19:51:00
3:51 PM,46.9,24.1,41,30.47,10.0,WNW,5.8,-,N/A,,Overcast,290,2011-12-02 20:51:00
4:51 PM,43.0,26.1,51,30.50,10.0,NW,4.6,-,N/A,,Clear,310,2011-12-02 21:51:00
5:51 PM,35.1,25.0,67,30.53,10.0,Calm,Calm,-,N/A,,Clear,0,2011-12-02 22:51:00
6:51 PM,34.0,27.0,75,30.56,10.0,East,3.5,-,N/A,,Clear,90,2011-12-02 23:51:00
7:51 PM,28.0,24.1,85,30.59,10.0,Calm,Calm,-,N/A,,Clear,0,2011-12-03 00:51:00
8:51 PM,28.0,24.1,85,30.58,10.0,Calm,Calm,-,N/A,,Clear,0,2011-12-03 01:51:00
9:51 PM,26.1,23.0,88,30.59,9.0,Calm,Calm,-,N/A,,Clear,0,2011-12-03 02:51:00
10:51 PM,25.0,21.9,88,30.58,9.0,Calm,Calm,-,N/A,,Clear,0,2011-12-03 03:51:00
11:51 PM,24.1,21.9,91,30.58,7.0,Calm,Calm,-,N/A,,Clear,0,2011-12-03 04:51:00